Location: Unspecified
(0.0000°N, 0.0000°E)
Time: 18:28:48
(UTC+00:00)

Transit 2A Rocket - All Passes

Search period start: 18 January 2020 00:00
Search period end: 28 January 2020 00:00
Orbit: 593 x 910 km, 66.7° (Epoch: 17 January)

Date Brightness Start Highest point End Pass type
(mag) Time Alt. Az. Time Alt. Az. Time Alt. Az.
18 Jan - 05:29:15 10° SSW 05:34:05 78° WNW 05:38:32 10° NNE visible
18 Jan - 16:16:46 10° NNE 16:20:35 19° ENE 16:24:34 10° ESE daylight
18 Jan - 17:57:58 10° NW 18:02:52 32° WSW 18:08:07 10° S daylight
19 Jan - 04:46:59 10° S 04:51:37 44° ESE 04:55:52 10° NE visible
19 Jan - 17:14:53 10° NNW 17:20:20 66° WSW 17:26:14 10° SSE daylight
20 Jan - 04:05:34 10° SSE 04:09:03 20° ESE 04:12:20 10° ENE visible
20 Jan - 05:48:01 10° WSW 05:51:19 19° WNW 05:54:27 10° NNW visible
20 Jan - 16:32:26 10° N 16:37:52 62° ENE 16:43:43 10° SSE daylight
21 Jan - 05:04:23 10° SW 05:08:55 43° WNW 05:13:07 10° N visible
21 Jan - 15:50:39 10° N 15:55:26 30° ENE 16:00:31 10° SE daylight
21 Jan - 17:33:42 10° WNW 17:37:50 21° WSW 17:42:10 10° SSW daylight
22 Jan - 04:21:39 10° SSW 04:26:28 78° ESE 04:30:54 10° NNE visible
22 Jan - 15:09:57 10° NE 15:13:00 15° ENE 15:16:09 10° ESE daylight
22 Jan - 16:50:03 10° NW 16:55:16 41° WSW 17:00:50 10° S daylight
23 Jan - 03:39:39 10° S 03:43:57 33° ESE 03:47:58 10° NE visible
23 Jan - 05:25:15 10° W 05:26:07 10° WNW 05:26:58 10° WNW visible
23 Jan - 16:07:12 10° NNW 16:12:45 83° WSW 16:18:43 10° SSE daylight
24 Jan - 02:58:44 10° SSE 03:01:23 15° ESE 03:03:55 10° ENE night (unlit)
24 Jan - 04:39:53 10° SW 04:43:42 25° WNW 04:47:20 10° NNW night (unlit)
24 Jan - 15:24:58 10° N 15:30:17 49° ENE 15:35:59 10° SE daylight
24 Jan - 17:10:17 10° W 17:12:49 13° WSW 17:15:25 10° SW daylight
25 Jan - 03:56:37 10° SSW 04:01:18 58° WNW 04:05:38 10° N night (unlit)
25 Jan - 14:43:27 10° NNE 14:47:52 24° ENE 14:52:30 10° SE daylight
25 Jan - 16:25:33 10° NW 16:30:12 26° WSW 16:35:08 10° SSW daylight
26 Jan - 03:14:09 10° S 03:18:50 57° ESE 03:23:10 10° NNE night (unlit)
26 Jan - 14:03:42 10° NE 14:05:25 11° ENE 14:07:10 10° E daylight
26 Jan - 15:42:13 10° NW 15:47:39 53° WSW 15:53:28 10° S daylight
27 Jan - 02:32:26 10° SSE 02:36:18 25° ESE 02:39:57 10° ENE night (unlit)
27 Jan - 04:16:04 10° WSW 04:18:31 14° WNW 04:20:53 10° NW night (unlit)
27 Jan - 14:59:36 10° NNW 15:05:10 78° ENE 15:11:09 10° SSE daylight
